Location: Los Gatos B&B
(42.6926°N, 77.0646°W)
Time: 14:48:23
(UTC-04:00)

Amateur Radio Satellites - All Passes

Search period start: 19 August 2017 14:18
Search period end: 20 August 2017 14:18
Location: Los Gatos B&B, 42.6926°N, 77.0646°W

Satellite Date Start Highest point End Downlink Frequencies (MHz)
Time Altitude Azimuth
Oscar 19 19 Aug 14:20:20 14:25:16 46° 261° (W) 14:30:15 437.125/150
AO-85 19 Aug 14:25:20 14:29:15 34° 50° (NE) 14:33:25 145.980
50 SAT 19 Aug 14:30:31 14:33:54 73° 283° (WNW) 14:37:14 437.505
ISS 19 Aug 14:31:57 14:34:11 17° 359° (N) 14:36:26 437.550
RS-15 19 Aug 14:33:24 14:44:41 39° 326° (NW) 14:56:00 29.354- 29.394
BUGSAT 1 19 Aug 14:36:49 14:37:47 11° 270° (W) 14:38:46 437.445
nSIGHT-1 19 Aug 14:42:46 14:44:59 17° 1° (N) 14:47:12 .
UKube-1 19 Aug 14:49:10 14:53:29 69° 102° (ESE) 14:57:46 .
YUBILEINY 19 Aug 15:00:22 15:05:47 18° 77° (ENE) 15:11:10 435.215
VELOX 1 19 Aug 15:00:57 15:04:04 19° 296° (WNW) 15:07:10 145.980
DX 1 19 Aug 15:07:17 15:11:30 49° 288° (WNW) 15:15:41 434.975-435.025
ITUPSAT 1 19 Aug 15:12:30 15:14:55 14° 90° (E) 15:17:19 437.325
Gurwin Techsat 1B 19 Aug 15:21:04 15:25:05 21° 267° (W) 15:29:07 435.225
Tancredo 1 19 Aug 15:28:50 15:31:26 29° 23° (NNE) 15:34:02 437.200
ITAMSAT 1 19 Aug 15:35:47 15:40:57 68° 73° (ENE) 15:46:07 435.822/435.867
BEESAT 3 19 Aug 15:40:19 15:43:45 28° 246° (WSW) 15:47:08 437.485
BEESAT 2 19 Aug 15:49:38 15:53:41 70° 239° (WSW) 15:57:40 435.950
AO-7 19 Aug 15:55:09 16:03:32 76° 253° (WSW) 16:11:56 .
AO-85 19 Aug 16:05:49 16:09:34 28° 245° (WSW) 16:13:31 145.980
ISS 19 Aug 16:08:38 16:11:28 26° 19° (NNE) 16:14:16 437.550
MOZHAYETS 4 19 Aug 16:13:49 16:18:19 51° 100° (E) 16:22:49
BEESAT 19 Aug 16:15:11 16:19:55 60° 102° (ESE) 16:24:37 436.000
nSIGHT-1 19 Aug 16:19:11 16:22:07 29° 21° (NNE) 16:25:01 .
UKube-1 19 Aug 16:27:06 16:28:56 13° 299° (WNW) 16:30:45 .
CUBESAT XI-V 19 Aug 16:30:23 16:33:19 16° 91° (E) 16:36:15 437.345
ITUPSAT 1 19 Aug 16:48:26 16:53:10 66° 287° (WNW) 16:57:54 437.325
RS-15 19 Aug 16:52:19 17:01:58 25° 0° (N) 17:11:24 29.354- 29.394
YUBILEINY 19 Aug 16:52:27 17:01:16 89° 100° (E) 17:10:06 435.215
Tancredo 1 19 Aug 17:03:59 17:06:41 36° 220° (SW) 17:09:22 437.200
ITAMSAT 1 19 Aug 17:17:53 17:20:53 15° 269° (W) 17:23:52 435.822/435.867
HO-68 19 Aug 17:21:44 17:24:38 13° 48° (NE) 17:27:32 435.675
DOVE 4 19 Aug 17:27:19 17:32:33 63° 74° (ENE) 17:37:41 437.250
CUTE-I 19 Aug 17:34:09 17:38:32 26° 64° (ENE) 17:42:55 437.470
KAITUO 1B 19 Aug 17:35:09 17:37:24 16° 66° (ENE) 17:39:40 145.475/437.950
ISS 19 Aug 17:44:55 17:48:10 62° 217° (SW) 17:51:22 437.550
LilacSat-2 19 Aug 17:50:15 17:53:38 32° 71° (ENE) 17:57:03 437.200
MOZHAYETS 4 19 Aug 17:52:00 17:55:05 18° 296° (WNW) 17:58:11
AO-7 19 Aug 17:53:25 17:57:35 14° 272° (W) 18:01:48 .
BEESAT 19 Aug 17:54:14 17:57:12 17° 298° (WNW) 18:00:09 436.000
nSIGHT-1 19 Aug 17:55:29 17:58:36 46° 220° (SW) 18:01:42 .
XW-2D 19 Aug 17:56:21 17:59:48 36° 72° (ENE) 18:03:18 145.860 - 145.880
CUBESAT XI-V 19 Aug 18:06:24 18:11:01 54° 287° (WNW) 18:15:36 437.345
XW-2B 19 Aug 18:07:11 18:10:47 48° 73° (ENE) 18:14:26 145.730 - 145.750
NUDT-PHONESAT 19 Aug 18:08:59 18:12:21 36° 72° (ENE) 18:15:46 437.300
KKS-1 19 Aug 18:13:19 18:17:46 81° 104° (ESE) 18:22:11 437.445
XW-2C 19 Aug 18:26:01 18:29:45 86° 79° (E) 18:33:33 145.795 - 145.815
CUTE 1.7 + AOD 2 19 Aug 18:27:02 18:29:45 17° 64° (ENE) 18:32:28 437.475
XW-2F 19 Aug 18:39:31 18:43:14 68° 259° (W) 18:46:59 145.980 - 146.000
YUBILEINY 19 Aug 18:53:08 18:59:19 21° 298° (WNW) 19:05:32 435.215
STARS 19 Aug 18:56:15 19:00:39 84° 285° (WNW) 19:05:00 437.465
HO-68 19 Aug 19:03:56 19:10:56 61° 69° (ENE) 19:17:58 435.675
DOVE 4 19 Aug 19:07:07 19:10:34 17° 270° (W) 19:13:59 437.250
KAITUO 1B 19 Aug 19:07:39 19:11:05 37° 262° (W) 19:14:35 145.475/437.950
RS-15 19 Aug 19:07:52 19:19:08 40° 34° (NE) 19:29:52 29.354- 29.394
CUTE-I 19 Aug 19:13:14 19:18:20 43° 261° (W) 19:23:26 437.470
SEEDS 19 Aug 19:16:30 19:20:18 34° 70° (ENE) 19:24:09 437.485
LilacSat-2 19 Aug 19:25:25 19:27:59 17° 267° (W) 19:30:35 437.200
AO-73 19 Aug 19:25:40 19:26:20 10° 61° (ENE) 19:27:00 145.935
XW-2D 19 Aug 19:31:54 19:34:09 15° 268° (W) 19:36:24 145.860 - 145.880
O/OREOS (USA 219) 19 Aug 19:33:52 19:38:06 37° 61° (ENE) 19:42:20 437.305
XW-2A 19 Aug 19:34:25 19:37:34 41° 73° (ENE) 19:40:44 145.665 - 145.685
STRAND 1 19 Aug 19:40:40 19:44:31 21° 93° (E) 19:48:20 437.568
XW-2B 19 Aug 19:43:50 19:45:14 12° 270° (W) 19:46:40 145.730 - 145.750
NUDT-PHONESAT 19 Aug 19:44:18 19:46:23 15° 268° (W) 19:48:30 437.300
KKS-1 19 Aug 19:52:19 19:53:39 11° 301° (WNW) 19:54:59 437.445
UWE-3 19 Aug 19:52:54 19:56:52 41° 72° (ENE) 20:00:47 435.000/436.395/437.385
CUBEBUG 2 19 Aug 19:56:45 20:01:03 82° 74° (ENE) 20:05:16 437.445
CUTE 1.7 + AOD 2 19 Aug 20:01:08 20:05:12 46° 261° (W) 20:09:19 437.475
AAUSAT CUBESAT 2 19 Aug 20:06:09 20:10:13 56° 74° (ENE) 20:14:19 437.432
Oscar 11 19 Aug 20:09:23 20:12:51 24° 67° (ENE) 20:16:19 .
ZACube-1 19 Aug 20:35:44 20:39:53 68° 74° (ENE) 20:44:00 437.345
SEEDS 19 Aug 20:52:54 20:56:04 21° 267° (W) 20:59:16 437.485
HO-68 19 Aug 20:53:17 20:59:05 26° 266° (W) 21:04:56 435.675
AO-73 19 Aug 20:57:50 21:01:58 75° 258° (WSW) 21:06:06 145.935
XW-2A 19 Aug 21:09:59 21:10:31 10° 269° (W) 21:11:04 145.665 - 145.685
O/OREOS (USA 219) 19 Aug 21:13:45 21:17:16 22° 258° (WSW) 21:20:48 437.305
STRAND 1 19 Aug 21:19:03 21:23:56 47° 290° (WNW) 21:28:48 437.568
RS-15 19 Aug 21:20:50 21:32:53 79° 241° (WSW) 21:44:16 29.354- 29.394
DELFI C3 19 Aug 21:25:08 21:28:49 37° 72° (ENE) 21:32:32 145.870
Max Valier Satellite 19 Aug 21:30:05 21:33:16 29° 71° (ENE) 21:36:29 145.860
UWE-3 19 Aug 21:30:48 21:33:31 17° 268° (W) 21:36:12 435.000/436.395/437.385
AAUSAT CUBESAT 2 19 Aug 21:44:11 21:46:01 13° 270° (W) 21:47:52 437.432
Oscar 11 19 Aug 21:45:00 21:48:49 31° 264° (W) 21:52:41 .
FO-29 19 Aug 21:52:18 21:57:11 30° 94° (E) 22:01:45 435.910
TIGRISAT 19 Aug 21:55:05 21:56:19 11° 90° (E) 21:57:33 435.000
PCSat 19 Aug 22:08:01 22:10:32 13° 103° (ESE) 22:13:03 145.827
EO-88 19 Aug 22:26:43 22:30:19 65° 259° (W) 22:33:57 145.990 - 145.960
LO-87 19 Aug 22:29:12 22:31:27 16° 66° (ENE) 22:33:41 145.935 - 145.965
ESTCUBE 1 19 Aug 22:34:06 22:36:51 16° 63° (ENE) 22:39:38 437.505/2401.250
UNISAT 6 19 Aug 22:53:40 22:57:53 54° 100° (E) 23:02:11 437.425
DELFI C3 19 Aug 23:01:00 23:03:43 17° 268° (W) 23:06:26 145.870
Max Valier Satellite 19 Aug 23:04:38 23:07:10 18° 267° (W) 23:09:41 145.860
SO-50 19 Aug 23:11:21 23:14:55 23° 113° (ESE) 23:18:30 436.795
PRISM 19 Aug 23:23:41 23:27:51 79° 103° (ESE) 23:31:56 437.425
TIGRISAT 19 Aug 23:29:10 23:33:26 67° 286° (WNW) 23:37:45 435.000
RS-15 19 Aug 23:35:51 23:43:10 19° 263° (W) 23:50:17 29.354- 29.394
FO-29 19 Aug 23:37:15 23:42:21 35° 294° (WNW) 23:47:06 435.910
PCSat 19 Aug 23:47:43 23:53:09 85° 301° (WNW) 23:58:37 145.827
POLYITAN 1 19 Aug 23:48:46 23:49:10 10° 89° (E) 23:49:33 437.675
LO-87 20 Aug 00:01:18 00:04:36 33° 262° (W) 00:07:54 145.935 - 145.965
QB50P2 20 Aug 00:01:43 00:04:26 17° 92° (E) 00:07:09 145.880/145.840
EO-79 20 Aug 00:03:03 00:05:35 16° 92° (E) 00:08:07 145.935-145.965
ESTCUBE 1 20 Aug 00:08:47 00:13:12 55° 260° (W) 00:17:40 437.505/2401.250
VELOX 1 20 Aug 00:21:17 00:25:29 42° 71° (ENE) 00:29:43 145.980
M-CUBED/EXP-1 PRIME 20 Aug 00:27:10 00:31:22 41° 103° (ESE) 00:35:15 437.505
AIST 2D 20 Aug 00:28:38 00:32:12 83° 101° (ESE) 00:35:46 435.315
DX 1 20 Aug 00:28:51 00:31:33 16° 63° (ENE) 00:34:15 434.975-435.025
UNISAT 6 20 Aug 00:31:43 00:34:12 15° 296° (WNW) 00:36:40 437.425
DUCHIFAT 1 20 Aug 00:33:51 00:37:24 26° 96° (E) 00:40:57 145.980
SPROUT 20 Aug 00:38:42 00:42:57 80° 77° (ENE) 00:47:13 437.525
SO-50 20 Aug 00:50:52 00:55:09 42° 310° (NW) 00:59:26 436.795
50 SAT 20 Aug 01:01:52 01:05:05 39° 72° (ENE) 01:08:18 437.505
PRISM 20 Aug 01:02:03 01:02:27 10° 300° (WNW) 01:02:53 437.425
NANOSAT C BR1 20 Aug 01:17:42 01:21:55 85° 280° (W) 01:26:06 145.865
POLYITAN 1 20 Aug 01:21:12 01:25:24 70° 285° (WNW) 01:29:35 437.675
PCSat 20 Aug 01:33:53 01:37:22 17° 320° (NW) 01:40:53 145.827
QB50P2 20 Aug 01:36:26 01:40:26 42° 288° (WNW) 01:44:24 145.880/145.840
EO-79 20 Aug 01:37:34 01:41:35 45° 288° (WNW) 01:45:35 145.935-145.965
UKube-1 20 Aug 01:43:52 01:48:08 63° 73° (ENE) 01:52:26 .
NO-84 20 Aug 01:49:14 01:51:47 28° 133° (SE) 01:54:17 435.350 FM
Gurwin Techsat 1B 20 Aug 01:56:07 01:59:45 18° 91° (E) 02:03:22 435.225
VELOX 1 20 Aug 01:58:57 02:02:07 19° 267° (W) 02:05:17 145.980
M-CUBED/EXP-1 PRIME 20 Aug 02:02:08 02:05:26 21° 301° (WNW) 02:08:34 437.505
DX 1 20 Aug 02:03:01 02:07:18 52° 259° (W) 02:11:36 434.975-435.025
DUCHIFAT 1 20 Aug 02:09:30 02:12:59 26° 292° (WNW) 02:16:29 145.980
BUGSAT 1 20 Aug 02:13:56 02:17:58 82° 284° (WNW) 02:21:59 437.445
ITUPSAT 1 20 Aug 02:19:42 02:23:00 19° 63° (ENE) 02:26:17 437.325
Oscar 19 20 Aug 02:30:45 02:35:55 58° 101° (ESE) 02:41:01 437.125/150
50 SAT 20 Aug 02:36:40 02:37:56 12° 268° (W) 02:39:13 437.505
YUBILEINY 20 Aug 03:01:58 03:10:17 46° 74° (ENE) 03:18:31 435.215
MOZHAYETS 4 20 Aug 03:16:09 03:20:33 52° 72° (ENE) 03:25:00
BEESAT 20 Aug 03:22:01 03:26:45 76° 75° (ENE) 03:31:31 436.000
UKube-1 20 Aug 03:22:52 03:24:34 12° 270° (W) 03:26:16 .
NO-84 20 Aug 03:26:43 03:29:09 24° 330° (NNW) 03:31:34 435.350 FM
CUBESAT XI-V 20 Aug 03:34:28 03:37:37 18° 63° (ENE) 03:40:47 437.345
Gurwin Techsat 1B 20 Aug 03:34:51 03:40:04 58° 288° (WNW) 03:45:16 435.225
ITAMSAT 1 20 Aug 03:48:36 03:52:34 22° 93° (E) 03:56:30 435.822/435.867
ITUPSAT 1 20 Aug 03:55:48 04:00:25 51° 260° (W) 04:05:04 437.325
AO-7 20 Aug 03:56:20 04:03:49 35° 97° (E) 04:11:13 .
Oscar 19 20 Aug 04:11:06 04:14:46 20° 298° (WNW) 04:18:26 437.125/150
STARS 20 Aug 04:21:04 04:21:50 10° 59° (ENE) 04:22:36 437.465
MOZHAYETS 4 20 Aug 04:55:15 04:58:01 16° 269° (W) 05:00:48
YUBILEINY 20 Aug 04:59:03 05:06:55 40° 274° (W) 05:14:46 435.215
BEESAT 20 Aug 05:03:25 05:05:03 12° 271° (W) 05:06:42 436.000
CUBESAT XI-V 20 Aug 05:10:04 05:14:34 51° 261° (W) 05:19:10 437.345
KKS-1 20 Aug 05:11:36 05:16:05 82° 74° (ENE) 05:20:34 437.445
ITAMSAT 1 20 Aug 05:27:18 05:32:15 47° 290° (WNW) 05:37:11 435.822/435.867
DOVE 4 20 Aug 05:27:32 05:30:00 14° 89° (E) 05:32:22 437.250
BEESAT 3 20 Aug 05:29:52 05:33:31 35° 116° (ESE) 05:37:14 437.485
BEESAT 2 20 Aug 05:42:39 05:45:06 16° 110° (ESE) 05:47:36 435.950
AO-7 20 Aug 05:48:48 05:56:51 55° 296° (WNW) 06:04:50 .
STARS 20 Aug 05:53:03 05:57:29 87° 259° (W) 06:01:54 437.465
XW-2F 20 Aug 06:12:38 06:14:01 12° 90° (E) 06:15:25 145.980 - 146.000
AO-85 20 Aug 06:20:36 06:24:31 78° 124° (SE) 06:28:26 145.980
KAITUO 1B 20 Aug 06:38:19 06:41:04 19° 94° (E) 06:43:49 145.475/437.950
PCSat 20 Aug 06:52:34 06:56:10 18° 40° (NE) 06:59:45 145.827
LilacSat-2 20 Aug 06:56:17 07:00:01 44° 99° (E) 07:03:43 437.200
STRAND 1 20 Aug 06:57:01 07:01:34 33° 67° (ENE) 07:06:07 437.568
XW-2D 20 Aug 07:01:40 07:05:25 50° 99° (E) 07:09:10 145.860 - 145.880
DOVE 4 20 Aug 07:03:37 07:08:08 54° 287° (WNW) 07:12:21 437.250
BEESAT 3 20 Aug 07:07:49 07:11:10 25° 314° (NW) 07:14:32 437.485
NUDT-PHONESAT 20 Aug 07:11:48 07:15:26 46° 99° (E) 07:19:03 437.300
XW-2B 20 Aug 07:12:38 07:16:29 66° 101° (E) 07:20:18 145.730 - 145.750
BEESAT 2 20 Aug 07:18:34 07:22:27 49° 308° (NW) 07:26:25 435.950
CUTE-I 20 Aug 07:29:05 07:34:24 71° 103° (ESE) 07:39:42 437.470
XW-2C 20 Aug 07:31:41 07:35:31 70° 285° (WNW) 07:39:21 145.795 - 145.815
SO-50 20 Aug 07:40:56 07:44:56 29° 46° (NE) 07:48:56 436.795
AO-7 20 Aug 07:44:07 07:47:46 14° 318° (NW) 07:51:25 .
XW-2F 20 Aug 07:44:42 07:48:26 51° 286° (WNW) 07:52:09 145.980 - 146.000
CUTE 1.7 + AOD 2 20 Aug 07:45:15 07:48:57 28° 95° (E) 07:52:39 437.475
CUBEBUG 2 20 Aug 07:47:40 07:50:08 15° 92° (E) 07:52:38 437.445
AO-85 20 Aug 08:03:25 08:05:25 13° 322° (NW) 08:07:26 145.980
FO-29 20 Aug 08:05:03 08:10:17 21° 60° (ENE) 08:15:11 435.910
KAITUO 1B 20 Aug 08:11:44 08:15:05 30° 290° (WNW) 08:18:27 145.475/437.950
HO-68 20 Aug 08:18:09 08:25:14 60° 102° (ESE) 08:32:17 435.675
NO-84 20 Aug 08:21:19 08:24:08 34° 34° (NNE) 08:27:06 435.350 FM
ZACube-1 20 Aug 08:24:40 08:26:31 12° 90° (E) 08:28:22 437.345
XW-2A 20 Aug 08:27:42 08:30:55 39° 99° (E) 08:34:08 145.665 - 145.685
LilacSat-2 20 Aug 08:31:44 08:33:54 15° 295° (WNW) 08:36:05 437.200
SEEDS 20 Aug 08:34:26 08:38:40 61° 100° (E) 08:42:53 437.485
PCSat 20 Aug 08:34:53 08:40:21 89° 59° (ENE) 08:45:46 145.827
STRAND 1 20 Aug 08:36:13 08:40:43 31° 264° (W) 08:45:13 437.568
XW-2D 20 Aug 08:37:22 08:39:11 13° 296° (WNW) 08:41:00 145.860 - 145.880
AO-73 20 Aug 08:45:21 08:48:26 19° 93° (E) 08:51:33 145.935
NUDT-PHONESAT 20 Aug 08:47:05 08:48:55 13° 295° (WNW) 08:50:46 437.300
XW-2B 20 Aug 08:49:30 08:50:06 10° 297° (WNW) 08:50:43 145.730 - 145.750
TIGRISAT 20 Aug 08:54:54 08:56:25 12° 62° (ENE) 08:57:57 435.000
CUTE-I 20 Aug 09:10:33 09:13:51 17° 300° (WNW) 09:17:09 437.470
UWE-3 20 Aug 09:17:14 09:21:30 87° 108° (ESE) 09:25:50 435.000/436.395/437.385
CUTE 1.7 + AOD 2 20 Aug 09:21:05 09:24:42 27° 292° (WNW) 09:28:18 437.475
SO-50 20 Aug 09:21:14 09:25:27 37° 244° (WSW) 09:29:41 436.795
AAUSAT CUBESAT 2 20 Aug 09:22:32 09:26:45 85° 286° (WNW) 09:30:55 437.432
CUBEBUG 2 20 Aug 09:22:58 09:27:00 46° 287° (WNW) 09:31:05 437.445
Oscar 11 20 Aug 09:30:45 09:34:56 43° 98° (E) 09:39:04 .
Tancredo 1 20 Aug 09:30:57 09:33:26 25° 137° (SE) 09:35:54 437.200
RS-15 20 Aug 09:38:56 09:44:51 15° 94° (E) 09:50:46 29.354- 29.394
FO-29 20 Aug 09:46:59 09:54:39 84° 255° (WSW) 10:01:38 435.910
O/OREOS (USA 219) 20 Aug 09:47:00 09:51:04 36° 106° (ESE) 09:55:10 437.305
UNISAT 6 20 Aug 09:53:00 09:57:12 51° 73° (ENE) 10:01:23 437.425
NO-84 20 Aug 09:58:49 10:01:25 24° 229° (SW) 10:04:12 435.350 FM
ZACube-1 20 Aug 09:58:56 10:03:08 60° 286° (WNW) 10:07:25 437.345
XW-2A 20 Aug 10:01:50 10:03:17 12° 295° (WNW) 10:04:45 145.665 - 145.685
HO-68 20 Aug 10:06:35 10:12:31 29° 301° (WNW) 10:18:25 435.675
SEEDS 20 Aug 10:11:47 10:13:50 13° 297° (WNW) 10:15:54 437.485
PRISM 20 Aug 10:13:05 10:17:11 60° 73° (ENE) 10:21:19 437.425
PCSat 20 Aug 10:20:42 10:22:55 13° 258° (WSW) 10:25:09 145.827
AO-73 20 Aug 10:20:49 10:24:47 39° 289° (WNW) 10:28:50 145.935
ISS 20 Aug 10:25:29 10:28:15 25° 136° (SE) 10:31:01 437.550
TIGRISAT 20 Aug 10:28:13 10:32:33 72° 258° (WSW) 10:36:50 435.000
Max Valier Satellite 20 Aug 10:32:25 10:35:52 36° 98° (E) 10:39:18 145.860
nSIGHT-1 20 Aug 10:34:38 10:37:36 32° 138° (SE) 10:40:35 .
DELFI C3 20 Aug 10:35:32 10:39:28 54° 100° (E) 10:43:20 145.870
QB50P2 20 Aug 10:55:34 10:57:56 15° 63° (ENE) 11:00:17 145.880/145.840
EO-79 20 Aug 10:56:47 10:58:56 14° 63° (ENE) 11:01:06 145.935-145.965
AIST 2D 20 Aug 11:03:38 11:06:43 30° 71° (ENE) 11:09:49 435.315
Tancredo 1 20 Aug 11:05:48 11:08:32 36° 334° (NNW) 11:11:16 437.200
Oscar 11 20 Aug 11:07:43 11:10:44 19° 295° (WNW) 11:13:45 .
M-CUBED/EXP-1 PRIME 20 Aug 11:12:24 11:16:49 59° 68° (ENE) 11:21:25 437.505
DUCHIFAT 1 20 Aug 11:26:28 11:29:42 22° 67° (ENE) 11:32:57 145.980
O/OREOS (USA 219) 20 Aug 11:26:57 11:30:34 24° 304° (WNW) 11:34:12 437.305
LO-87 20 Aug 11:27:58 11:30:16 16° 93° (E) 11:32:31 145.935 - 145.965
EO-88 20 Aug 11:28:04 11:31:41 54° 285° (WNW) 11:35:16 145.990 - 145.960
UNISAT 6 20 Aug 11:31:47 11:34:13 15° 269° (W) 11:36:37 437.425
FO-29 20 Aug 11:36:08 11:40:22 16° 272° (W) 11:44:27 435.910
RS-15 20 Aug 11:42:48 11:54:48 67° 115° (ESE) 12:06:57 29.354- 29.394
PRISM 20 Aug 11:51:19 11:52:49 12° 270° (W) 11:54:21 437.425
ESTCUBE 1 20 Aug 12:00:36 12:04:34 29° 95° (E) 12:08:29 437.505/2401.250
ISS 20 Aug 12:01:26 12:04:36 43° 333° (NNW) 12:07:45 437.550
Max Valier Satellite 20 Aug 12:07:08 12:09:24 16° 294° (WNW) 12:11:41 145.860
NANOSAT C BR1 20 Aug 12:09:57 12:14:08 76° 75° (ENE) 12:18:19 145.865
nSIGHT-1 20 Aug 12:10:53 12:13:58 36° 335° (NNW) 12:17:01 .
DELFI C3 20 Aug 12:11:54 12:13:45 13° 297° (WNW) 12:15:37 145.870
Oscar 19 20 Aug 12:12:39 12:14:51 13° 57° (ENE) 12:17:03 437.125/150
POLYITAN 1 20 Aug 12:13:57 12:18:09 87° 256° (WSW) 12:22:22 437.675
SPROUT 20 Aug 12:25:21 12:27:10 12° 90° (E) 12:28:59 437.525
QB50P2 20 Aug 12:29:10 12:33:16 53° 260° (W) 12:37:25 145.880/145.840
EO-79 20 Aug 12:30:05 12:34:13 57° 259° (W) 12:38:22 145.935-145.965
AIST 2D 20 Aug 12:37:50 12:39:59 15° 268° (W) 12:42:09 435.315
Tancredo 1 20 Aug 12:42:32 12:44:20 15° 353° (N) 12:46:08 437.200
M-CUBED/EXP-1 PRIME 20 Aug 12:48:55 12:51:35 15° 265° (W) 12:54:18 437.505
LO-87 20 Aug 13:00:37 13:03:45 30° 289° (WNW) 13:06:51 145.935 - 145.965
DUCHIFAT 1 20 Aug 13:01:27 13:05:12 32° 263° (W) 13:08:58 145.980
BUGSAT 1 20 Aug 13:03:48 13:07:53 74° 75° (ENE) 13:11:56 437.445
AO-7 20 Aug 13:09:29 13:12:56 13° 42° (NE) 13:16:23 .
AO-85 20 Aug 13:11:28 13:13:30 13° 38° (NE) 13:15:34 145.980
Gurwin Techsat 1B 20 Aug 13:17:32 13:22:13 32° 66° (ENE) 13:26:54 435.225
ESTCUBE 1 20 Aug 13:37:23 13:41:18 29° 292° (WNW) 13:45:12 437.505/2401.250
ISS 20 Aug 13:39:19 13:41:40 18° 352° (N) 13:44:02 437.550
BEESAT 3 20 Aug 13:45:47 13:49:18 28° 48° (NE) 13:52:45 437.485
VELOX 1 20 Aug 13:46:26 13:50:52 77° 102° (ESE) 13:55:16 145.980
Oscar 19 20 Aug 13:48:14 13:53:23 89° 80° (E) 13:58:36 437.125/150
nSIGHT-1 20 Aug 13:48:45 13:51:01 17° 355° (N) 13:53:16 .
DX 1 20 Aug 13:50:46 13:54:18 24° 95° (E) 13:57:49 434.975-435.025
50 SAT 20 Aug 13:55:06 13:58:13 33° 98° (E) 14:01:17 437.505
BEESAT 2 20 Aug 13:58:35 14:01:12 16° 41° (NE) 14:03:47 435.950
SPROUT 20 Aug 13:59:15 14:03:26 58° 286° (WNW) 14:07:35 437.525
